Wind_Speed
27 27 27 26 25 26 26 26 27 27 27 27 29 32 33 35 35 36 37 38 36 35 35 33 32 32 32 30 30 29 28 28 28 28 27 27 27 27 27 28 27 26 28 28 26 22 20 21 24 25 24 24 23 23 22 21 20 19 18 18 19 19 20 19 18 20 21 21 21 21 21 22 21 20 20 19 19 18 18 18 18 18 18 18 19
27 26 25 24 24 24 24 25 26 26 25 26 28 30 31 32 32 32 33 35 35 35 34 31 30 30 31 30 30 29 28 28 27 27 27 27 26 26 27 27 26 26 27 27 26 23 21 23 26 25 24 24 23 22 22 22 21 19 19 20 20 19 20 19 18 21 22 21 21 21 22 22 21 21 20 20 19 19 18 19 19 20 20 20 21
25 25 24 23 23 23 24 24 25 25 24 24 25 27 27 28 28 29 30 31 32 32 32 31 29 29 30 30 29 28 28 28 28 27 28 28 28 27 27 27 27 27 26 26 25 24 24 25 26 25 24 23 22 22 23 22 22 21 20 21 20 20 21 20 19 22 23 23 23 23 23 23 22 21 21 20 20 20 20 21 21 22 23 23 24
24 24 24 22 22 23 24 23 24 24 24 23 23 23 24 24 24 25 29 32 31 30 30 30 30 29 29 29 29 28 28 28 29 28 28 29 29 29 28 27 27 27 26 26 26 26 25 25 25 24 23 22 22 23 24 24 23 22 22 22 21 21 22 22 21 23 24 24 24 24 24 24 23 23 22 22 22 22 22 23 23 24 25 25 26
24 24 24 22 21 22 23 23 23 23 24 23 22 22 22 22 21 20 23 28 30 28 28 29 30 30 30 29 29 29 29 29 30 30 29 28 29 30 29 28 27 26 25 26 26 26 26 25 24 24 23 23 24 25 25 24 24 23 23 22 22 22 23 24 24 24 25 25 25 26 25 25 25 24 24 24 24 24 24 24 24 25 26 26 27
24 24 24 23 21 21 22 23 23 23 24 24 23 22 22 22 21 19 16 20 24 26 26 27 28 31 31 30 30 29 29 29 31 31 29 29 29 29 29 29 28 26 25 25 25 26 25 24 24 24 24 24 25 25 25 25 25 25 24 23 23 23 23 24 24 24 25 25 26 27 26 26 26 25 25 24 24 25 25 25 25 25 26 27 28
24 23 23 22 21 21 21 22 22 22 23 23 23 23 22 22 22 21 17 16 19 22 25 26 28 32 33 32 31 30 29 30 31 32 30 30 31 30 29 30 29 27 27 27 26 25 25 24 24 24 24 25 25 25 25 25 25 24 24 24 25 25 24 24 24 24 25 26 26 26 26 26 26 25 25 25 25 26 26 26 25 26 27 28 28
23 23 22 22 21 20 20 21 21 21 22 22 22 22 22 22 22 22 21 18 18 20 23 24 26 30 31 31 30 29 29 30 31 32 30 30 30 29 28 29 28 27 27 27 26 25 26 25 24 24 24 25 26 26 25 26 25 24 25 25 26 26 25 24 23 24 25 26 25 25 25 25 26 25 25 25 26 26 27 26 26 27 28 28 28
22 22 22 21 20 20 20 21 20 20 21 22 21 22 22 22 22 22 22 22 21 21 23 24 25 26 27 28 28 28 28 29 31 31 30 28 28 29 28 27 26 26 26 26 26 26 25 23 22 22 23 24 25 25 25 26 25 25 26 27 26 26 25 24 23 23 24 25 24 25 26 26 25 25 25 26 27 27 27 27 27 27 28 28 29
21 21 22 21 21 20 20 21 21 21 21 21 21 21 22 22 22 23 23 24 24 23 24 26 26 26 27 27 26 28 29 30 30 31 30 28 28 29 28 27 26 26 27 27 26 25 24 23 22 23 25 26 26 25 26 27 26 26 27 27 26 26 25 24 22 21 23 26 26 27 27 26 26 26 27 28 28 28 27 27 28 28 29 30 30
20 21 22 22 21 21 21 21 21 21 22 22 22 21 21 22 23 24 26 25 25 25 25 25 25 26 27 26 25 27 30 31 30 30 30 29 28 29 28 27 27 27 26 27 27 25 24 24 24 26 27 28 29 28 28 27 27 27 28 27 27 25 23 21 21 22 26 30 30 29 28 27 27 28 29 29 29 28 28 28 29 30 30 31 31
20 21 22 23 23 23 22 22 22 22 22 22 23 22 21 22 22 25 27 27 26 26 25 26 26 26 25 26 26 25 26 29 30 29 29 29 30 31 29 28 28 28 27 27 27 25 24 24 25 27 28 29 29 28 27 27 26 27 28 28 28 27 25 25 26 28 31 32 30 29 29 29 29 30 30 30 30 29 29 30 30 31 32 32 32
22 23 24 25 25 25 25 24 24 24 24 23 23 23 22 22 23 24 27 27 26 25 24 25 27 27 26 26 26 24 24 27 28 28 29 29 30 31 31 30 30 29 28 28 27 25 25 25 26 27 28 28 28 27 26 26 26 27 28 28 28 28 28 29 30 30 31 30 30 30 31 31 32 32 31 31 31 31 31 31 32 32 33 33 34
26 26 26 27 27 27 27 27 26 26 26 25 23 23 22 23 23 25 26 27 26 24 23 24 26 27 27 27 26 23 24 27 27 28 28 28 29 31 31 31 30 29 28 28 27 26 25 26 27 28 27 26 26 26 26 26 26 28 29 29 29 29 29 29 29 29 30 30 31 31 32 33 33 33 32 33 33 33 33 33 33 34 35 35 36
29 29 29 28 28 27 27 28 27 27 28 28 26 24 23 23 23 25 26 26 26 24 24 25 27 27 27 27 26 24 26 29 28 27 27 27 29 31 33 32 30 29 28 28 26 26 27 27 28 27 26 26 26 26 27 28 28 29 29 29 30 30 30 30 30 30 31 31 31 32 32 33 33 33 33 34 34 34 35 35 35 36 36 37 37
30 29 29 28 27 27 26 27 28 27 27 28 28 27 25 23 24 25 26 26 26 24 24 24 26 26 27 27 26 25 28 31 31 28 27 28 29 31 34 33 30 29 28 27 26 28 28 28 28 27 26 26 26 26 28 29 29 28 27 28 29 30 30 30 31 31 31 30 30 30 31 31 32 33 33 34 34 35 36 36 36 36 36 37 38
30 29 29 28 27 26 26 26 27 27 27 28 28 28 26 24 24 25 26 27 26 24 24 25 25 25 25 26 26 26 29 32 31 29 29 29 30 31 33 33 31 30 29 27 27 29 29 28 28 28 28 28 28 27 28 28 27 25 24 24 26 27 27 28 29 29 29 29 30 30 31 31 32 33 34 35 36 37 38 39 39 39 38 39 40
29 29 28 28 27 26 26 26 26 26 26 27 29 29 27 26 25 26 27 27 28 27 25 26 26 25 25 27 27 28 31 34 34 33 33 31 31 32 33 33 32 30 28 27 28 30 31 31 31 29 28 29 28 27 27 27 26 26 26 26 27 28 28 28 29 30 31 32 33 33 32 32 33 34 34 36 37 38 39 40 39 39 39 39 39
29 29 29 29 28 26 26 26 26 25 25 27 28 29 29 27 26 26 27 28 28 28 27 25 25 28 29 30 31 32 35 37 37 36 35 33 33 33 34 35 33 30 30 31 32 32 30 29 30 31 30 30 29 28 29 31 30 31 30 30 31 32 32 32 33 34 34 34 34 34 34 35 35 35 34 34 34 35 36 36 36 36 36 36 37
32 31 30 29 29 28 27 26 26 26 25 26 28 29 30 29 27 26 26 27 27 27 27 25 25 29 32 32 34 36 38 39 39 37 36 36 35 35 37 38 35 31 30 30 31 31 30 28 28 29 30 31 32 33 34 35 35 34 34 35 36 37 36 35 35 34 33 33 33 34 36 37 37 36 35 34 34 33 34 34 34 34 35 36 37
35 34 32 31 30 29 28 28 27 26 25 26 28 29 30 31 29 27 26 26 25 25 24 24 23 27 32 35 37 37 37 40 42 41 38 37 35 35 38 39 37 34 31 28 27 28 29 30 31 30 29 30 32 35 37 38 36 35 35 36 37 38 37 35 35 34 34 34 35 37 38 38 38 37 35 35 34 34 34 34 34 35 35 37 38
36 36 35 33 32 30 29 29 28 27 26 26 27 28 29 31 31 28 25 25 24 23 22 23 23 25 32 37 39 38 38 41 44 43 39 35 33 34 36 37 36 34 31 30 31 31 30 31 33 33 33 33 33 34 36 37 35 34 34 35 35 36 36 36 37 37 37 37 38 38 38 38 38 38 37 37 36 36 36 36 37 37 38 39 41
37 37 37 36 35 33 31 30 29 29 28 26 27 28 28 30 31 29 26 23 23 22 21 21 21 22 27 34 37 37 39 43 44 40 35 33 33 36 37 36 34 32 30 30 30 30 30 32 33 34 35 36 36 35 36 37 36 36 35 35 35 36 37 39 41 41 41 39 39 39 39 39 40 39 39 38 38 38 38 38 39 40 41 42 43
39 38 38 38 38 37 35 33 31 30 29 28 28 28 28 29 31 30 27 23 22 22 23 22 21 20 22 29 33 33 35 40 40 36 33 33 33 35 35 34 33 32 33 34 33 31 30 30 30 31 33 33 33 34 35 36 36 36 36 36 38 39 40 41 42 42 42 42 41 41 42 42 42 41 40 40 39 39 39 39 40 42 43 44 45
41 41 40 40 40 40 39 38 35 33 31 30 29 29 28 28 29 30 28 24 22 22 24 25 25 22 20 24 30 32 32 34 36 35 33 32 29 28 29 29 28 28 30 33 35 35 34 33 31 30 30 32 33 33 33 33 35 37 38 39 40 40 40 40 41 43 44 45 45 45 45 44 43 42 41 41 40 40 40 41 42 43 44 44 45
43 43 43 42 42 41 41 40 38 36 34 33 31 30 30 29 29 30 29 26 22 22 24 26 26 23 20 20 25 29 31 32 33 33 32 29 26 25 25 25 24 25 25 27 28 30 32 33 33 33 33 34 35 36 36 37 38 38 38 38 39 40 41 41 43 46 47 47 46 45 44 42 42 41 41 41 41 41 42 43 43 44 44 45 45
42 42 42 42 42 41 40 40 39 38 36 35 33 32 31 30 29 29 30 28 24 22 24 26 26 24 22 20 22 25 27 28 30 32 31 29 28 27 26 25 25 26 27 29 30 31 32 34 36 38 40 41 43 44 45 45 44 42 41 40 41 42 43 43 45 46 45 44 43 41 40 40 40 41 41 41 42 42 42 43 44 45 45 45 45
39 39 40 40 40 40 39 39 39 39 38 37 35 34 33 31 30 29 29 29 26 24 25 26 25 24 23 23 23 24 24 24 26 28 29 29 29 27 25 25 26 28 31 33 35 37 38 39 41 42 44 45 46 48 48 49 49 48 47 46 45 45 45 44 44 43 42 41 40 40 40 40 41 41 42 42 42 43 43 44 45 45 45 46 46
37 37 37 37 38 39 38 38 38 38 38 37 36 35 35 33 32 30 29 28 27 26 25 26 26 24 24 23 23 23 22 22 24 27 28 29 28 27 26 26 27 29 31 33 35 38 40 42 43 45 46 47 48 49 49 50 50 49 47 46 45 43 43 42 42 42 42 41 41 40 40 41 42 42 43 43 43 44 44 45 45 45 45 45 45
35 35 35 35 36 37 38 38 37 37 37 36 35 34 34 34 33 32 30 28 28 27 27 27 27 27 26 24 23 22 20 21 24 27 29 29 29 30 31 32 31 31 31 32 34 35 36 38 40 42 44 46 47 47 47 47 46 44 43 42 40 38 38 39 41 41 41 40 40 40 40 41 42 42 43 43 44 44 44 44 44 44 44 44 44
36 36 35 34 34 35 37 37 37 37 36 35 34 33 32 32 33 33 31 30 29 29 29 29 29 29 29 29 27 25 23 23 26 28 29 31 32 34 36 36 35 33 32 32 34 35 35 35 35 36 37 39 40 41 41 41 39 38 37 36 36 36 38 39 39 38 38 38 39 40 41 42 43 43 44 44 44 45 44 44 43 43 43 43 43
40 39 38 37 36 37 37 37 38 38 37 36 35 33 32 31 31 32 32 31 31 31 31 31 32 32 33 33 32 31 29 28 28 28 29 31 32 33 35 36 35 33 33 33 35 36 37 36 35 34 34 34 35 36 35 35 34 34 34 34 35 36 37 37 37 38 39 39 39 40 42 43 45 45 46 45 45 44 43 42 42 41 41 42 42
44 43 43 41 40 40 40 39 39 39 39 38 37 36 34 32 30 30 31 32 32 33 33 34 34 35 36 36 36 36 35 34 33 32 33 34 34 32 30 29 29 29 29 29 30 30 31 31 30 30 31 31 32 33 33 34 35 35 36 37 38 38 38 38 38 38 39 39 40 42 44 46 46 46 45 44 43 42 41 41 40 40 40 41 42
43 43 44 44 43 42 41 41 40 40 39 39 38 38 36 34 32 30 30 31 32 33 34 36 37 38 38 39 39 39 39 38 37 35 35 36 37 35 29 27 27 28 29 29 29 29 30 31 32 33 34 35 36 37 37 37 38 39 39 39 39 39 39 39 39 39 40 42 44 45 46 45 44 43 42 41 41 40 40 39 39 40 40 41 41
36 38 39 40 41 41 41 40 39 39 38 38 37 35 35 34 33 32 31 30 31 32 34 36 37 39 40 41 41 41 41 40 39 37 35 34 35 35 34 33 34 35 35 36 36 37 37 38 38 38 39 39 39 40 39 39 39 40 40 40 39 39 39 40 41 42 44 45 45 45 44 43 42 41 40 40 39 39 38 38 39 39 40 40 40
27 29 31 32 33 34 35 34 33 33 33 34 34 34 33 32 32 31 30 30 30 31 32 34 35 37 38 39 40 40 39 38 38 38 36 34 35 37 39 39 39 40 41 43 43 43 42 42 41 41 41 40 40 41 41 40 40 40 41 41 41 41 42 44 45 45 45 45 44 43 42 41 39 39 38 38 38 37 37 38 38 38 38 39 39
18 19 20 22 24 25 26 27 26 26 26 28 30 32 33 33 32 31 30 30 30 30 31 32 33 34 35 36 37 37 37 36 36 37 38 38 39 41 42 42 42 43 44 45 46 46 45 44 43 42 42 41 41 41 41 42 43 43 43 43 44 44 46 46 47 46 45 44 42 41 39 38 37 36 36 36 36 36 36 37 37 36 37 37 38
13 13 13 13 14 16 18 20 22 24 25 26 26 27 28 29 29 29 30 29 29 28 28 29 31 33 34 35 37 38 38 38 37 37 39 40 41 42 43 44 45 45 45 45 46 47 46 45 44 43 42 42 41 41 41 43 45 46 46 45 46 46 46 46 45 43 42 41 39 38 36 35 35 34 34 35 35 35 35 35 34 34 34 35 36
15 15 15 14 13 12 11 12 14 17 20 22 24 25 25 25 25 26 26 28 29 29 29 28 29 30 32 33 34 36 38 39 39 38 39 40 40 41 42 43 44 44 44 44 44 45 46 46 46 45 44 43 42 41 42 43 45 46 46 46 45 45 44 43 41 40 38 37 35 34 33 33 33 33 33 33 33 33 33 32 32 32 32 33 33
17 16 16 16 16 16 15 13 12 11 12 14 17 20 22 24 25 25 25 26 27 28 30 30 30 31 32 33 33 34 36 37 37 37 37 37 37 38 39 40 41 42 42 42 43 43 44 44 44 44 44 43 43 43 42 43 44 44 45 44 44 42 41 39 38 36 35 33 33 32 32 32 32 32 32 32 32 31 30 30 29 29 30 30 31
22 20 19 18 17 17 17 16 16 15 14 12 12 12 14 17 20 23 25 26 27 28 29 30 30 31 31 32 34 35 36 38 39 39 39 38 37 36 36 36 37 38 38 39 40 41 42 43 44 44 43 43 43 43 42 43 43 43 42 42 41 39 38 36 34 33 32 32 31 31 31 31 31 31 31 30 29 28 28 27 27 28 28 29 30
27 26 24 23 21 20 19 18 17 17 16 16 15 14 13 13 13 14 16 19 22 25 28 30 31 32 33 33 33 34 35 36 38 40 41 41 41 40 39 38 37 37 37 37 38 38 39 40 40 41 42 42 42 42 42 42 41 40 40 39 37 36 35 33 32 32 31 31 30 30 30 31 31 31 29 28 27 26 26 26 26 27 28 29 29
26 26 26 26 26 25 24 22 21 20 19 18 17 16 15 15 14 14 14 14 15 16 18 21 24 27 29 32 33 34 35 36 36 37 38 39 39 40 40 40 40 39 39 39 39 39 40 40 39 39 39 39 40 39 39 39 38 37 37 36 35 34 33 32 31 31 30 30 30 30 30 30 29 28 27 25 25 24 24 25 26 27 27 28 28
23 23 24 24 24 25 25 25 24 23 23 22 21 20 19 18 17 17 16 16 16 16 16 16 17 18 20 22 25 28 31 33 34 35 36 37 37 38 38 39 40 40 40 40 40 40 40 41 41 41 41 40 39 39 38 37 36 35 34 34 33 32 31 31 30 29 29 29 29 29 29 28 27 26 25 24 24 24 24 25 26 26 27 27 28
21 21 22 22 22 22 22 22 23 23 23 23 23 22 22 21 21 20 20 19 19 18 18 18 18 18 18 18 19 20 22 25 27 30 31 33 34 35 35 36 37 37 38 38 38 38 38 38 39 39 39 39 38 38 37 36 35 34 33 32 31 30 30 29 29 28 28 28 29 29 28 27 25 25 24 23 23 24 25 25 26 26 27 27 27
19 20 20 20 21 21 21 21 21 21 21 22 22 22 23 23 23 23 23 22 22 21 21 20 20 20 20 20 20 20 20 21 22 24 25 27 29 31 32 33 33 34 35 35 36 36 36 36 36 36 36 36 36 35 35 34 33 32 32 31 30 29 29 28 28 28 28 29 28 28 27 26 25 24 23 23 24 24 25 26 26 27 27 26 26
18 18 19 19 20 20 20 20 20 21 21 21 21 22 22 23 23 24 24 24 24 24 24 23 23 22 22 22 22 22 22 22 22 22 23 23 25 27 28 29 30 31 32 32 33 33 34 34 34 34 34 34 34 34 33 32 32 31 30 30 29 28 28 28 28 28 28 28 28 27 26 25 24 24 23 24 24 25 25 26 27 27 27 26 26
18 18 18 18 19 19 19 20 20 20 20 21 21 21 21 22 23 23 24 25 26 27 27 27 26 26 25 24 24 23 23 23 23 23 23 23 24 25 26 27 28 29 30 30 30 31 31 32 32 33 33 33 33 32 32 31 31 30 29 29 28 28 27 28 28 28 28 27 27 26 25 25 24 24 24 24 24 25 25 26 26 26 26 26 26
18 18 18 18 19 19 19 20 20 20 21 21 21 21 21 22 22 23 23 24 26 27 28 29 29 29 29 28 27 26 25 25 25 25 25 24 24 25 25 26 27 28 29 29 29 29 30 30 31 31 32 32 32 31 31 31 30 29 28 28 27 27 27 27 27 27 27 26 26 25 25 24 24 24 24 24 25 25 25 26 26 25 25 25 25
18 18 19 19 19 20 20 20 21 21 21 22 22 22 23 23 23 23 23 24 24 26 27 28 30 30 31 31 30 29 29 28 27 27 27 26 25 25 25 25 25 26 27 27 28 28 28 29 30 30 30 31 30 30 30 30 29 28 28 28 27 27 27 27 27 27 26 26 25 25 25 24 24 24 25 25 25 25 25 25 25 24 24 24 25
19 19 20 20 20 21 21 21 21 22 22 22 22 23 23 24 24 24 25 25 25 25 26 27 29 30 31 32 31 31 30 30 29 29 29 28 27 26 26 26 26 26 26 26 26 26 27 28 29 29 29 29 30 29 29 29 29 28 28 28 27 27 27 27 27 26 26 26 25 25 25 25 25 25 25 24 24 24 24 24 24 24 24 24 24
Wind_Direction
288 289 290 292 293 292 291 290 291 292 291 287 284 281 279 276 271 265 261 259 258 255 255 255 251 246 245 245 244 244 244 247 249 247 246 247 249 252 253 251 246 243 242 239 236 236 236 238 244 249 249 249 251 251 251 250 248 249 250 250 252 255 258 260 263 265 264 265 267 272 276 277 276 276 275 274 272 271 271 271 271 273 275 278 280
286 288 290 293 295 295 294 295 295 296 294 290 287 287 288 284 274 264 259 256 255 254 253 252 248 243 242 242 243 243 243 245 247 247 246 247 249 251 252 251 247 242 241 242 240 234 230 237 246 249 248 250 251 251 251 250 250 249 249 251 254 256 259 260 262 265 266 266 270 274 275 274 273 272 272 271 271 270 269 269 270 272 275 277 280
286 288 291 295 298 297 296 296 297 297 295 292 290 292 296 293 279 264 255 251 251 251 250 247 244 242 241 242 244 244 243 244 246 247 247 248 249 251 251 251 246 240 239 240 238 232 230 237 243 246 248 250 250 250 250 251 251 252 252 254 256 259 260 260 260 263 266 269 272 273 272 271 270 271 271 271 271 271 271 270 271 273 276 278 279
285 287 290 294 297 297 297 297 297 298 298 297 295 297 300 297 284 265 252 247 246 247 248 244 242 242 242 242 244 244 244 245 246 247 249 249 249 249 249 249 245 238 235 236 236 234 235 239 242 246 248 248 249 250 251 252 253 254 255 256 258 261 262 261 260 262 267 269 269 269 268 268 269 271 272 272 273 274 274 273 274 275 277 278 279
284 285 288 292 296 298 298 299 298 297 299 301 302 302 303 300 291 275 255 245 243 244 246 245 243 243 243 243 243 243 244 246 248 249 249 249 248 247 246 245 242 236 233 235 237 237 239 242 245 248 249 249 251 252 251 252 254 255 256 258 260 261 262 263 263 264 266 268 267 266 265 266 269 272 273 274 275 276 276 275 275 276 277 279 280
284 285 289 293 297 298 299 300 300 299 300 303 306 306 306 305 302 294 271 249 245 245 244 244 245 244 244 244 244 242 242 244 247 248 247 247 247 245 244 243 236 232 233 235 237 238 241 245 249 251 252 252 253 252 252 252 254 256 257 259 261 262 262 265 267 268 268 267 265 265 266 268 271 274 275 276 277 277 276 276 277 279 279 280 282
282 285 288 292 296 297 299 300 301 300 300 303 306 307 308 308 308 305 291 266 251 246 244 245 246 246 245 245 245 244 240 240 243 245 246 246 242 237 240 239 231 230 236 238 236 238 243 249 253 254 255 255 253 252 252 254 256 260 262 260 260 261 263 265 268 272 270 266 264 266 268 271 273 274 276 276 277 276 276 277 279 279 279 280 281
281 284 288 292 295 295 297 299 301 301 301 302 304 305 307 307 307 307 302 287 266 254 249 248 246 245 244 244 245 244 241 239 241 244 246 244 236 233 238 236 231 234 238 236 234 238 245 250 255 257 259 260 258 255 255 256 257 259 262 262 262 263 265 266 269 272 268 261 262 267 270 271 271 272 273 273 274 274 275 276 278 278 278 278 278
283 287 290 292 294 295 296 298 301 301 301 302 303 304 305 305 304 303 300 293 282 267 256 250 247 245 243 242 243 242 239 239 239 241 244 240 234 236 237 232 232 236 234 233 236 241 246 250 254 258 258 258 258 257 257 258 258 258 258 260 263 264 266 268 269 269 264 260 263 268 270 270 269 270 272 272 272 273 274 275 276 277 277 276 276
284 288 291 293 295 297 297 299 301 302 302 302 303 303 303 304 304 301 296 291 286 275 261 253 249 246 245 244 245 244 241 238 238 238 239 238 238 241 236 228 231 235 233 235 239 241 244 247 249 248 247 248 252 253 254 254 256 258 258 259 260 263 266 267 263 257 255 259 265 268 268 267 269 272 273 273 274 275 276 277 277 278 278 278 279
282 288 291 294 296 298 299 299 300 301 301 301 301 301 301 302 302 299 295 291 287 281 272 263 256 250 248 247 248 248 243 237 236 237 238 238 239 239 236 232 234 236 236 237 239 240 244 246 245 244 244 246 249 250 250 251 251 254 259 260 260 262 261 257 252 247 250 258 265 267 265 265 269 273 274 275 276 277 278 279 279 280 280 281 282
280 286 290 293 295 297 298 298 298 298 299 300 301 301 300 300 299 297 294 291 288 283 277 271 262 254 252 251 251 250 242 234 232 235 239 240 237 234 233 233 236 238 237 237 239 242 244 245 246 245 244 244 245 247 249 251 252 255 258 259 257 256 254 250 249 251 254 259 262 261 261 265 270 274 275 276 277 278 278 279 279 280 280 281 282
278 283 286 289 292 294 296 297 297 297 297 297 299 300 300 299 298 296 295 293 288 280 275 271 263 255 253 253 252 247 238 232 230 231 235 238 238 234 230 229 233 237 237 239 242 243 243 244 244 243 243 243 245 248 250 251 255 257 257 257 256 254 252 250 251 253 255 258 258 258 261 267 272 276 277 277 278 278 278 278 278 279 280 280 281
279 282 285 287 289 292 294 296 297 297 296 295 295 296 297 298 297 296 295 294 288 278 270 264 259 254 251 252 251 243 235 234 232 230 232 235 239 237 230 228 233 236 238 240 242 243 242 242 242 242 244 246 247 249 250 252 257 259 258 257 255 254 253 252 252 254 255 256 257 261 266 271 275 277 277 276 276 276 276 276 276 277 278 279 280
280 283 285 286 288 289 291 293 294 295 295 295 295 295 296 296 296 296 296 294 288 278 268 259 253 250 248 248 247 241 236 235 234 232 233 235 240 236 228 228 233 235 237 240 240 241 240 239 241 244 245 248 250 250 249 251 256 259 258 258 256 254 254 254 255 256 257 259 262 267 272 275 276 276 275 275 275 274 274 274 275 276 278 279 279
281 283 285 286 287 287 287 288 290 292 292 294 295 296 296 296 296 294 295 295 289 277 269 263 257 250 245 245 246 242 237 232 229 231 234 237 240 235 226 227 234 234 234 235 236 240 243 241 243 246 246 248 251 250 250 253 255 257 257 257 255 253 253 255 257 259 261 265 268 272 276 278 277 276 276 276 275 275 275 275 276 278 279 280 280
282 284 285 285 285 285 284 284 286 288 289 291 292 294 295 296 296 294 294 295 292 280 269 263 257 250 244 242 242 238 232 229 229 235 239 240 242 237 227 227 232 232 231 233 235 239 243 244 245 247 247 249 250 250 250 251 251 249 245 242 243 249 253 256 259 262 265 268 272 274 277 277 276 276 276 275 275 275 276 277 278 279 279 278 279
282 283 284 284 283 282 281 281 282 284 286 288 289 291 292 293 294 294 293 293 293 289 280 269 258 246 240 239 239 234 228 230 238 244 244 241 242 239 231 228 231 231 230 233 236 237 241 244 247 247 246 245 246 245 243 244 242 237 233 232 237 247 255 259 262 266 269 271 273 274 275 276 277 278 277 277 276 276 277 278 279 280 280 279 279
280 282 282 283 282 280 279 279 280 282 284 285 287 288 291 292 292 293 293 293 295 296 293 283 263 243 235 233 233 230 228 232 242 248 247 242 240 238 232 229 231 232 229 229 234 238 239 240 242 243 241 240 242 239 237 240 241 236 234 236 242 250 257 261 265 269 270 272 273 274 276 278 281 281 281 280 279 278 278 278 279 280 280 279 279
279 280 281 281 281 279 278 278 279 281 282 283 284 286 289 290 291 292 292 294 298 298 295 290 271 248 239 235 229 226 226 231 240 247 246 243 241 236 231 229 229 229 228 230 236 240 237 230 231 236 237 238 241 241 240 241 242 240 240 244 250 256 262 264 267 268 269 271 273 275 277 280 281 280 280 280 279 278 278 278 278 278 279 279 279
279 279 280 279 279 278 277 276 277 279 280 281 282 284 286 289 290 292 292 293 298 300 296 293 280 255 243 240 238 235 230 228 233 240 242 242 240 236 233 234 232 227 226 228 231 233 230 225 225 230 234 237 241 243 241 242 244 247 250 253 256 259 261 262 264 266 269 272 274 275 276 277 278 277 278 278 279 278 278 278 278 278 278 279 281
278 279 280 280 279 279 278 277 277 278 278 279 280 281 283 286 288 290 292 292 296 300 298 293 284 263 246 240 240 241 237 229 229 234 238 241 241 238 237 239 235 227 222 225 229 231 230 228 230 233 236 240 244 243 241 240 244 249 254 255 256 257 259 263 266 269 270 272 274 275 275 276 276 276 277 278 279 278 278 278 278 278 279 280 281
278 279 280 282 281 280 279 278 277 277 278 278 279 279 279 282 284 287 288 287 288 293 294 290 285 274 258 247 242 243 241 234 231 234 238 239 239 240 240 240 235 227 220 219 224 228 230 232 236 239 241 244 246 247 246 246 249 253 255 256 258 260 263 267 269 270 271 272 273 275 277 277 278 277 276 276 276 276 275 276 277 278 279 280 280
278 280 281 283 283 283 282 280 278 277 278 278 278 279 278 278 280 283 285 285 282 283 286 286 287 287 274 257 248 244 241 235 233 236 239 239 241 244 244 241 239 234 229 225 226 230 233 237 241 243 243 241 241 244 247 249 252 255 256 257 259 261 263 265 265 266 269 271 273 277 279 280 279 276 274 273 273 273 274 276 277 278 279 280 280
279 281 282 282 283 284 284 283 281 279 278 277 277 278 278 276 276 278 281 282 280 279 281 283 286 292 289 268 252 243 239 237 237 239 241 245 250 250 244 239 238 238 236 235 236 237 238 241 244 243 238 234 234 238 244 248 251 252 253 255 257 259 261 263 263 263 265 268 272 277 279 278 275 273 271 270 271 273 275 277 278 279 280 280 280
279 281 281 281 282 283 283 283 283 281 279 277 276 276 277 276 274 275 277 278 276 274 277 282 284 286 287 277 260 249 244 242 242 243 245 249 252 250 244 240 242 245 246 245 244 242 240 241 242 241 239 238 241 246 251 255 256 256 257 258 259 260 262 263 263 264 266 268 272 274 274 271 269 268 268 270 272 275 278 279 279 280 280 280 281
279 280 280 281 281 281 281 282 282 281 280 277 274 273 274 274 273 272 273 275 274 270 272 278 282 280 275 271 264 258 253 250 248 248 249 251 252 251 248 247 249 252 254 254 253 252 250 249 248 247 247 247 250 253 255 257 257 255 254 256 258 261 263 264 264 265 266 267 268 269 267 266 266 268 271 274 277 279 280 280 280 280 280 281 281
277 278 278 279 279 279 279 280 280 280 279 277 275 272 270 271 270 268 268 270 271 269 267 271 274 272 266 259 255 256 257 257 255 253 252 253 251 247 245 251 257 259 259 257 256 255 254 254 253 253 252 251 252 253 253 253 252 251 251 254 258 260 261 262 262 262 263 264 266 267 267 268 270 273 277 279 281 281 281 281 281 280 280 281 281
275 275 276 277 278 278 278 278 277 278 277 276 276 274 271 270 268 266 265 266 267 265 262 261 263 262 258 251 248 249 254 258 259 257 256 254 247 240 244 256 264 265 263 261 259 258 257 257 257 257 257 256 256 256 254 253 252 252 254 256 259 259 260 261 261 261 262 264 266 267 269 272 275 278 280 281 280 280 280 280 280 280 280 281 281
272 272 273 274 276 276 277 276 275 275 275 275 274 273 272 271 268 265 263 262 263 261 258 255 254 254 254 251 247 246 250 255 257 255 254 253 248 244 249 258 264 264 264 263 264 263 262 261 261 260 260 260 259 258 256 254 255 256 257 257 258 258 257 256 256 257 259 263 266 270 274 277 278 279 278 277 277 278 278 279 279 279 280 281 281
271 271 270 271 272 273 274 275 275 275 274 273 272 271 269 268 267 265 263 260 258 256 255 253 252 251 252 253 251 248 246 247 249 249 249 250 250 250 252 256 261 263 263 263 264 262 260 260 261 261 260 260 259 258 257 256 256 255 254 254 254 253 254 254 257 261 266 270 274 276 278 278 277 277 276 275 276 277 278 279 279 279 280 281 283
273 273 272 272 271 271 272 273 275 275 275 275 273 271 270 268 265 263 262 259 256 253 252 251 251 251 251 252 252 250 248 246 246 247 249 251 251 252 251 253 255 258 261 263 263 260 257 257 258 258 259 259 259 257 256 254 253 253 253 254 255 257 260 264 268 272 274 275 276 276 276 276 276 275 275 275 276 277 278 278 279 280 282 283 286
274 273 273 273 272 271 271 272 273 274 275 276 275 274 273 271 267 263 259 257 255 253 250 249 249 250 251 252 252 252 252 251 250 250 251 253 255 257 256 253 252 252 254 256 258 257 256 257 258 259 261 262 261 261 260 260 262 263 264 264 265 267 270 272 274 275 275 275 275 275 274 274 273 273 273 274 275 276 277 278 280 282 284 287 289
274 273 272 271 271 270 269 269 270 271 272 274 275 275 275 274 272 267 262 257 255 253 250 249 248 249 250 252 253 253 254 255 255 253 252 254 258 260 258 253 252 251 250 251 253 256 258 259 260 262 263 265 266 267 268 269 270 271 271 271 271 272 273 275 275 275 274 274 273 272 271 271 271 272 273 274 276 277 278 280 282 284 287 289 292
276 274 273 271 271 270 269 268 268 267 268 269 270 271 272 273 273 272 269 264 259 255 253 251 250 250 251 253 254 256 255 255 255 255 254 255 257 258 256 253 254 256 258 259 261 263 263 263 264 266 267 269 270 271 272 272 272 272 273 273 273 274 274 275 274 273 271 271 270 270 270 271 272 273 274 275 277 278 280 282 284 286 289 292 294
283 280 277 275 273 272 271 271 270 269 268 268 267 268 267 267 267 267 268 267 264 261 257 255 253 253 252 253 255 257 258 256 254 253 253 253 253 254 256 256 257 258 260 262 264 266 267 267 268 269 270 271 272 272 273 274 274 274 274 274 274 274 274 272 271 270 269 269 269 270 270 271 272 273 275 276 277 279 281 283 286 288 291 294 297
302 297 292 287 282 278 275 271 268 267 267 268 269 270 271 271 270 268 266 265 264 262 260 258 256 256 255 254 254 254 255 255 253 251 250 250 251 253 256 258 259 259 260 261 263 265 267 269 271 272 273 274 274 275 276 276 275 275 274 274 273 271 270 268 267 267 267 267 269 270 271 271 272 273 274 276 278 280 282 285 288 291 294 296 299
342 339 332 322 310 299 290 280 272 267 266 267 269 271 272 273 273 271 268 265 263 261 259 257 257 257 258 258 257 256 255 255 254 253 251 251 252 254 256 257 258 259 260 260 261 263 266 269 271 274 275 276 276 276 275 272 269 268 267 267 266 265 265 265 265 265 266 267 269 270 270 271 271 273 275 277 279 281 284 287 290 293 296 299 302
10 11 10 8 2 350 334 315 298 285 277 272 270 270 270 270 270 270 268 266 263 262 260 259 258 258 258 259 259 260 260 261 262 262 261 260 260 260 260 261 261 261 261 261 262 263 264 266 269 272 274 276 277 276 273 270 267 266 266 265 265 264 265 265 265 265 266 267 268 269 269 270 271 274 276 278 280 283 286 289 292 295 298 301 303
25 23 22 22 21 19 15 9 357 339 317 298 285 278 275 273 273 272 271 269 267 266 266 266 266 265 264 263 262 263 264 267 269 270 271 270 269 268 267 266 266 266 266 266 267 267 268 269 270 272 273 274 275 274 272 271 269 268 267 267 266 265 265 265 265 265 266 266 267 268 269 270 272 274 276 279 281 284 287 290 293 296 299 302 305
36 33 30 28 25 23 22 21 18 14 8 358 341 322 303 290 283 278 275 273 272 271 271 271 272 272 271 269 267 266 266 267 269 271 273 274 274 273 272 270 269 269 269 269 269 269 269 270 270 271 272 272 272 271 270 269 268 267 266 265 265 265 265 264 264 264 264 264 266 267 269 271 273 274 276 279 281 284 287 291 294 298 301 303 306
38 38 36 34 31 28 24 21 18 16 14 11 8 3 354 341 326 310 297 288 282 278 275 274 273 273 273 273 272 271 269 269 269 270 271 273 275 275 275 274 273 272 271 270 270 269 269 268 268 268 268 268 268 268 267 267 266 265 265 264 264 263 263 262 261 262 263 264 265 267 269 271 272 273 276 278 281 284 288 292 295 299 301 304 306
35 36 35 34 33 32 29 27 24 20 16 12 9 6 2 358 353 347 339 330 319 307 297 289 283 279 277 275 274 273 272 271 270 270 270 271 272 273 274 274 274 273 272 271 271 270 270 270 269 269 268 268 267 267 266 265 265 264 263 262 261 260 259 259 259 260 261 262 264 265 268 269 271 272 275 277 280 283 288 292 296 299 302 304 305
31 31 31 31 31 30 29 28 27 25 23 20 16 12 7 2 357 352 347 343 338 333 328 321 313 304 296 289 284 279 276 274 273 271 271 270 270 271 271 271 272 272 272 271 270 269 268 268 268 268 268 268 267 267 266 265 263 262 261 259 258 257 256 256 257 258 259 261 262 264 266 268 270 271 273 276 279 283 287 291 295 298 301 304 306
29 28 27 26 25 25 24 23 23 22 22 22 20 18 15 11 7 1 356 350 344 339 334 330 326 322 317 311 304 297 291 285 281 277 274 273 272 271 270 270 269 269 269 270 269 269 268 267 266 266 265 265 264 264 263 262 261 260 258 257 256 256 256 256 257 257 258 260 261 262 264 266 268 270 272 274 278 281 285 289 293 297 300 303 306
26 25 24 23 22 21 19 17 16 15 14 14 14 14 13 12 10 8 3 359 354 349 343 337 332 327 323 319 316 311 307 301 295 290 285 281 277 275 273 272 270 269 269 268 268 268 267 266 266 265 264 263 263 262 261 260 259 258 257 257 256 256 256 256 256 257 257 258 259 260 262 264 267 269 271 273 276 280 283 287 290 294 298 302 305
18 18 19 18 18 18 16 14 12 10 8 6 4 4 4 4 5 4 3 1 358 355 351 346 341 335 330 326 323 320 316 312 308 303 297 292 286 282 278 275 273 272 270 269 269 268 267 266 265 264 264 263 262 261 261 260 259 258 257 256 255 255 255 254 254 255 255 256 257 259 260 263 266 268 271 273 275 278 281 284 288 292 297 301 306
10 10 10 10 10 10 10 10 9 7 5 3 360 357 356 355 355 355 356 356 355 354 353 350 347 343 338 334 330 327 324 321 318 314 309 304 298 292 285 280 276 273 271 270 269 268 267 267 266 264 264 263 262 261 260 259 258 258 256 255 254 253 253 252 252 252 253 255 256 258 260 262 265 267 270 272 274 277 280 283 287 292 296 301 306
4 3 3 3 3 3 3 3 3 2 1 359 357 355 352 350 349 348 348 348 348 349 348 348 347 345 342 339 335 332 329 327 325 322 318 314 309 302 295 288 281 276 273 271 270 268 267 267 266 264 264 263 262 261 260 260 259 258 257 256 255 253 252 251 252 252 253 255 256 257 259 262 264 266 268 270 272 275 278 282 286 291 296 301 306
358 358 358 357 357 357 357 357 356 356 355 354 353 352 350 348 346 343 342 341 342 343 343 343 343 342 341 339 338 336 333 331 329 327 324 321 316 309 303 296 288 281 275 272 270 269 268 266 265 264 263 262 261 261 260 259 259 258 258 256 255 254 252 252 252 253 253 254 256 257 259 261 262 264 266 268 271 274 277 282 287 292 296 301 306
352 352 353 353 353 353 353 352 352 351 350 349 348 348 347 346 344 342 339 337 336 337 338 338 339 339 338 338 338 337 335 333 331 329 326 324 320 314 307 300 294 287 280 275 271 269 268 267 265 264 262 261 259 258 258 257 257 256 255 255 254 253 252 252 251 252 252 253 255 256 258 259 261 263 265 267 270 273 277 281 287 292 296 302 307
Height
5774 5773 5772 5771 5770 5769 5768 5767 5765 5764 5763 5761 5759 5757 5755 5753 5752 5752 5752 5753 5754 5756 5757 5759 5759 5760 5761 5762 5764 5765 5766 5767 5767 5768 5768 5769 5771 5771 5772 5772 5773 5775 5777 5778 5779 5780 5781 5782 5781 5781 5782 5783 5783 5784 5784 5785 5785 5786 5787 5788 5789 5789 5789 5790 5791 5790 5789 5790 5789 5789 5790 5789 5789 5789 5789 5789 5789 5789 5789 5789 5789 5789 5789 5789 5789
5772 5771 5769 5769 5768 5767 5766 5764 5763 5761 5760 5758 5756 5753 5751 5749 5748 5747 5747 5748 5750 5751 5752 5754 5755 5756 5757 5758 5759 5761 5762 5763 5764 5764 5765 5766 5767 5768 5768 5769 5770 5772 5773 5774 5776 5777 5778 5779 5779 5779 5779 5780 5781 5782 5782 5782 5783 5784 5785 5785 5786 5787 5787 5788 5789 5787 5786 5787 5787 5787 5787 5786 5786 5786 5786 5787 5786 5786 5786 5786 5787 5787 5787 5786 5786
5769 5768 5767 5766 5765 5764 5763 5761 5760 5758 5757 5755 5753 5750 5748 5746 5744 5744 5744 5745 5746 5747 5748 5750 5751 5753 5754 5755 5756 5757 5758 5760 5761 5761 5762 5763 5763 5764 5765 5766 5767 5768 5770 5771 5773 5774 5775 5776 5776 5776 5776 5777 5779 5780 5779 5779 5780 5781 5782 5782 5783 5784 5784 5785 5786 5784 5784 5784 5784 5784 5784 5784 5784 5784 5784 5784 5784 5784 5784 5784 5784 5784 5784 5784 5784
5767 5766 5764 5764 5762 5761 5760 5759 5757 5755 5754 5752 5750 5748 5746 5744 5741 5740 5740 5741 5742 5744 5745 5746 5748 5749 5751 5752 5753 5753 5754 5756 5757 5758 5759 5759 5760 5761 5762 5763 5764 5765 5767 5769 5770 5771 5772 5772 5772 5773 5774 5775 5776 5777 5777 5777 5778 5778 5779 5780 5780 5781 5781 5782 5783 5782 5782 5782 5781 5781 5781 5781 5781 5781 5781 5781 5781 5781 5781 5781 5781 5781 5781 5781 5781
5764 5763 5762 5761 5760 5758 5757 5755 5754 5752 5750 5749 5747 5746 5744 5742 5739 5738 5737 5738 5739 5741 5742 5743 5744 5746 5747 5749 5750 5750 5751 5753 5754 5755 5756 5756 5756 5757 5758 5760 5761 5762 5764 5765 5766 5767 5768 5768 5769 5770 5771 5773 5774 5774 5774 5774 5775 5776 5776 5777 5777 5778 5779 5779 5780 5780 5780 5780 5779 5778 5778 5778 5778 5779 5779 5779 5779 5779 5778 5778 5778 5778 5778 5778 5778
5761 5760 5759 5758 5757 5756 5754 5752 5751 5749 5747 5746 5744 5743 5741 5740 5738 5736 5735 5735 5736 5738 5739 5740 5741 5743 5744 5744 5745 5747 5748 5749 5750 5751 5752 5752 5753 5754 5755 5756 5758 5759 5761 5762 5763 5764 5765 5765 5766 5767 5769 5770 5771 5771 5771 5771 5772 5773 5774 5775 5775 5775 5776 5776 5777 5778 5778 5778 5776 5776 5776 5776 5776 5776 5776 5776 5776 5776 5775 5775 5775 5775 5775 5775 5775
5758 5758 5757 5755 5754 5753 5751 5750 5748 5746 5745 5743 5741 5740 5739 5738 5736 5734 5733 5733 5734 5735 5736 5737 5738 5739 5739 5740 5741 5742 5743 5744 5745 5746 5748 5748 5749 5750 5751 5753 5754 5756 5758 5759 5760 5761 5761 5762 5764 5765 5766 5767 5768 5768 5768 5769 5770 5771 5772 5772 5772 5772 5773 5774 5775 5775 5775 5775 5774 5773 5773 5773 5773 5773 5773 5773 5773 5773 5772 5772 5772 5772 5772 5772 5771
5756 5755 5754 5753 5752 5750 5749 5747 5746 5744 5742 5741 5739 5738 5736 5736 5735 5733 5733 5732 5732 5733 5733 5734 5734 5734 5735 5736 5736 5738 5739 5741 5742 5743 5744 5745 5745 5746 5748 5749 5751 5753 5755 5756 5756 5757 5758 5760 5761 5762 5764 5765 5765 5765 5766 5766 5769 5770 5770 5769 5769 5769 5770 5772 5773 5773 5772 5772 5771 5771 5771 5770 5770 5770 5770 5770 5770 5769 5769 5769 5769 5768 5768 5768 5768
5752 5751 5750 5750 5749 5748 5746 5745 5743 5742 5740 5739 5738 5736 5735 5734 5733 5732 5732 5731 5731 5731 5730 5730 5731 5731 5731 5732 5733 5734 5735 5737 5738 5739 5741 5741 5742 5743 5745 5747 5749 5750 5751 5752 5753 5754 5755 5757 5760 5761 5761 5762 5762 5763 5764 5764 5767 5768 5768 5767 5767 5767 5767 5769 5770 5770 5768 5767 5768 5768 5767 5767 5767 5767 5767 5767 5767 5766 5766 5766 5765 5765 5765 5764 5764
5749 5748 5747 5747 5746 5745 5744 5742 5741 5740 5738 5737 5736 5734 5733 5732 5731 5730 5729 5729 5729 5729 5728 5727 5728 5728 5728 5729 5730 5731 5732 5733 5735 5736 5737 5738 5740 5741 5742 5744 5746 5747 5748 5749 5750 5751 5752 5755 5757 5758 5758 5758 5759 5760 5762 5763 5764 5764 5764 5765 5765 5764 5765 5766 5766 5767 5766 5764 5764 5764 5765 5765 5764 5764 5764 5763 5763 5763 5763 5762 5762 5761 5761 5761 5761
5746 5745 5744 5743 5743 5742 5741 5740 5739 5737 5736 5735 5734 5733 5731 5731 5730 5728 5726 5726 5726 5726 5726 5725 5725 5726 5726 5726 5727 5727 5728 5730 5731 5732 5733 5735 5737 5738 5739 5741 5742 5743 5745 5746 5746 5748 5749 5751 5753 5754 5754 5755 5755 5757 5758 5759 5760 5760 5760 5761 5761 5761 5763 5763 5763 5764 5762 5761 5761 5762 5762 5762 5762 5761 5761 5760 5760 5760 5760 5759 5758 5758 5758 5757 5757
5743 5742 5741 5740 5740 5739 5738 5737 5736 5735 5734 5733 5731 5730 5729 5729 5728 5726 5723 5722 5722 5722 5722 5722 5722 5722 5722 5723 5723 5723 5724 5726 5727 5728 5730 5732 5734 5736 5737 5738 5739 5740 5742 5743 5744 5745 5746 5748 5749 5750 5751 5752 5752 5753 5754 5754 5755 5756 5756 5757 5758 5758 5759 5761 5761 5761 5759 5758 5759 5759 5759 5759 5759 5758 5758 5758 5757 5757 5756 5756 5755 5754 5754 5754 5754
5740 5739 5738 5738 5737 5736 5735 5734 5733 5733 5732 5731 5730 5728 5727 5726 5725 5723 5721 5719 5719 5718 5718 5718 5718 5718 5718 5719 5719 5720 5721 5722 5724 5725 5727 5728 5730 5731 5734 5735 5736 5737 5739 5740 5741 5742 5743 5744 5745 5746 5747 5748 5749 5750 5750 5750 5750 5752 5752 5753 5754 5755 5756 5757 5758 5757 5756 5756 5756 5756 5756 5756 5756 5755 5755 5754 5754 5753 5753 5752 5751 5750 5750 5749 5749
5736 5736 5735 5735 5734 5733 5732 5731 5730 5729 5728 5728 5727 5726 5724 5723 5722 5720 5718 5716 5715 5714 5714 5714 5714 5714 5714 5715 5716 5717 5718 5719 5720 5722 5724 5725 5726 5727 5729 5732 5733 5735 5736 5737 5738 5738 5739 5740 5741 5742 5744 5745 5746 5746 5745 5746 5747 5748 5749 5749 5750 5751 5752 5752 5753 5753 5753 5753 5753 5753 5753 5753 5752 5752 5751 5750 5750 5749 5748 5748 5747 5746 5746 5745 5745
5733 5732 5732 5731 5731 5730 5729 5727 5727 5726 5725 5724 5724 5723 5722 5721 5719 5717 5715 5714 5712 5711 5711 5710 5710 5710 5711 5711 5712 5714 5715 5715 5717 5718 5720 5722 5723 5724 5726 5728 5730 5731 5733 5734 5734 5735 5735 5737 5738 5739 5741 5741 5742 5742 5742 5742 5743 5744 5745 5746 5746 5747 5747 5748 5748 5749 5749 5749 5750 5749 5749 5749 5748 5748 5747 5746 5746 5745 5744 5743 5743 5742 5742 5741 5740
5729 5729 5728 5728 5727 5727 5726 5724 5723 5722 5721 5720 5719 5719 5718 5718 5716 5714 5713 5711 5710 5709 5708 5708 5707 5707 5708 5708 5709 5711 5711 5712 5713 5715 5717 5718 5719 5721 5723 5725 5726 5728 5729 5730 5731 5731 5731 5733 5735 5736 5737 5737 5737 5738 5738 5738 5739 5740 5741 5742 5741 5742 5743 5744 5744 5745 5745 5745 5746 5745 5745 5744 5744 5743 5742 5742 5741 5740 5739 5739 5738 5739 5739 5737 5736
5725 5725 5724 5724 5723 5723 5722 5721 5720 5719 5718 5717 5716 5715 5715 5714 5713 5711 5710 5709 5707 5706 5706 5705 5704 5704 5705 5706 5707 5708 5708 5709 5710 5712 5713 5715 5716 5718 5719 5721 5723 5724 5726 5727 5728 5727 5728 5730 5731 5732 5733 5733 5733 5734 5734 5734 5735 5736 5737 5738 5737 5737 5738 5739 5740 5741 5741 5741 5741 5741 5741 5740 5739 5739 5738 5737 5736 5735 5734 5734 5734 5734 5734 5733 5731
5721 5721 5720 5720 5720 5719 5719 5718 5717 5716 5715 5714 5712 5711 5711 5710 5710 5708 5707 5705 5704 5703 5703 5702 5701 5702 5702 5703 5704 5705 5705 5705 5706 5708 5709 5711 5713 5714 5716 5718 5719 5721 5723 5725 5724 5724 5725 5726 5726 5727 5728 5728 5729 5730 5730 5731 5732 5732 5733 5734 5734 5734 5735 5735 5736 5737 5737 5737 5737 5737 5736 5736 5735 5734 5733 5732 5731 5730 5730 5729 5729 5729 5728 5728 5727
5717 5717 5716 5716 5716 5716 5715 5714 5713 5712 5712 5710 5709 5708 5707 5706 5706 5705 5704 5702 5701 5700 5700 5698 5697 5698 5699 5699 5701 5701 5701 5702 5703 5704 5706 5707 5709 5711 5712 5714 5716 5718 5719 5720 5720 5720 5722 5722 5722 5722 5723 5724 5726 5727 5727 5727 5728 5728 5729 5730 5730 5730 5731 5731 5732 5732 5732 5733 5733 5732 5732 5731 5730 5730 5729 5728 5727 5726 5725 5725 5725 5724 5723 5722 5722
5713 5713 5713 5712 5712 5712 5712 5711 5710 5709 5708 5707 5706 5705 5704 5703 5703 5702 5701 5700 5698 5698 5698 5696 5695 5695 5695 5696 5697 5697 5697 5699 5699 5700 5702 5703 5704 5706 5708 5709 5712 5714 5714 5715 5715 5717 5718 5719 5718 5718 5719 5720 5721 5723 5723 5723 5724 5725 5726 5726 5726 5726 5726 5727 5727 5727 5728 5728 5728 5728 5727 5727 5726 5725 5725 5724 5723 5722 5722 5721 5720 5720 5719 5718 5717
5709 5708 5708 5708 5708 5708 5708 5707 5707 5706 5705 5704 5703 5702 5701 5699 5699 5699 5698 5697 5696 5695 5695 5694 5693 5693 5693 5693 5693 5694 5695 5696 5695 5695 5697 5699 5700 5702 5703 5705 5708 5709 5709 5710 5711 5711 5713 5714 5714 5714 5715 5716 5717 5718 5718 5719 5720 5721 5722 5722 5722 5722 5722 5722 5722 5722 5723 5723 5723 5723 5723 5722 5722 5721 5720 5720 5719 5718 5717 5717 5716 5715 5714 5713 5712
5704 5704 5703 5703 5704 5704 5703 5703 5703 5702 5702 5701 5700 5699 5698 5696 5695 5695 5695 5695 5693 5692 5692 5692 5691 5691 5690 5690 5690 5690 5691 5692 5691 5691 5694 5695 5696 5698 5699 5700 5703 5705 5705 5705 5706 5707 5709 5709 5710 5711 5712 5713 5713 5713 5714 5715 5716 5717 5717 5717 5717 5717 5717 5718 5718 5718 5718 5718 5718 5718 5718 5717 5716 5716 5715 5715 5714 5713 5712 5712 5711 5710 5709 5708 5707
5700 5699 5698 5698 5698 5698 5699 5699 5698 5698 5698 5698 5696 5695 5695 5694 5692 5692 5692 5692 5692 5691 5690 5689 5688 5687 5687 5687 5687 5687 5688 5688 5688 5689 5691 5692 5693 5694 5695 5696 5698 5700 5701 5702 5703 5704 5705 5705 5706 5707 5707 5708 5708 5709 5709 5710 5711 5712 5712 5712 5712 5713 5713 5713 5713 5712 5713 5713 5713 5712 5712 5711 5711 5710 5710 5709 5709 5708 5707 5706 5706 5705 5704 5703 5702
5695 5694 5694 5693 5693 5692 5693 5693 5694 5694 5694 5693 5692 5691 5691 5690 5689 5688 5688 5689 5689 5688 5688 5687 5686 5685 5685 5684 5684 5685 5685 5685 5686 5687 5688 5688 5689 5690 5691 5693 5694 5696 5697 5698 5699 5701 5701 5701 5702 5702 5702 5703 5704 5704 5705 5706 5706 5707 5707 5707 5708 5708 5708 5707 5707 5706 5707 5707 5707 5707 5706 5706 5705 5705 5704 5704 5703 5703 5702 5701 5700 5699 5698 5697 5696
5690 5690 5689 5689 5688 5687 5687 5687 5688 5689 5689 5689 5688 5688 5687 5687 5686 5685 5684 5684 5685 5685 5684 5684 5683 5683 5683 5682 5681 5682 5682 5682 5683 5684 5685 5686 5686 5687 5688 5689 5690 5692 5693 5694 5695 5696 5697 5698 5698 5698 5699 5699 5699 5700 5700 5701 5701 5701 5702 5702 5702 5702 5702 5702 5701 5701 5702 5702 5702 5701 5701 5700 5700 5699 5699 5698 5698 5697 5696 5696 5695 5694 5692 5691 5690
5685 5684 5684 5684 5683 5683 5682 5682 5682 5683 5683 5683 5684 5683 5683 5683 5682 5682 5681 5680 5681 5681 5681 5681 5680 5681 5681 5680 5680 5680 5681 5681 5681 5682 5683 5683 5684 5685 5686 5687 5687 5688 5689 5690 5691 5692 5693 5694 5694 5695 5695 5695 5695 5695 5696 5696 5696 5696 5696 5697 5696 5696 5696 5696 5696 5696 5696 5696 5696 5696 5695 5695 5694 5693 5693 5693 5692 5691 5691 5690 5689 5688 5686 5685 5684
5680 5679 5679 5678 5678 5678 5677 5677 5676 5677 5677 5678 5678 5679 5679 5678 5678 5678 5677 5677 5677 5677 5678 5678 5678 5678 5678 5678 5678 5678 5679 5679 5680 5680 5680 5681 5682 5682 5683 5684 5685 5685 5686 5687 5687 5688 5689 5690 5690 5691 5691 5691 5691 5691 5691 5691 5691 5691 5691 5690 5690 5691 5691 5691 5691 5691 5691 5691 5691 5690 5690 5689 5689 5688 5688 5687 5687 5685 5685 5684 5682 5681 5680 5679 5677
5675 5674 5673 5673 5672 5672 5672 5672 5671 5671 5671 5672 5673 5673 5674 5674 5674 5674 5674 5674 5673 5674 5674 5675 5675 5675 5675 5675 5675 5676 5676 5677 5677 5677 5678 5678 5679 5679 5680 5680 5681 5682 5682 5682 5683 5683 5684 5684 5684 5685 5685 5685 5685 5685 5684 5684 5684 5684 5684 5685 5685 5686 5686 5686 5686 5686 5686 5685 5685 5684 5684 5683 5683 5683 5682 5682 5680 5679 5678 5677 5676 5675 5674 5672 5671
5670 5669 5669 5668 5667 5667 5667 5667 5666 5666 5666 5666 5667 5668 5668 5669 5669 5670 5670 5670 5670 5670 5671 5671 5672 5672 5672 5672 5672 5672 5672 5673 5673 5674 5674 5675 5675 5676 5676 5677 5677 5677 5677 5678 5678 5678 5678 5678 5679 5679 5679 5679 5679 5679 5679 5678 5678 5678 5679 5680 5680 5680 5680 5680 5680 5680 5680 5680 5679 5679 5678 5678 5678 5677 5676 5675 5674 5673 5672 5671 5669 5668 5667 5666 5665
5665 5665 5664 5664 5663 5662 5661 5661 5661 5661 5661 5662 5662 5662 5663 5663 5664 5665 5665 5666 5666 5666 5667 5667 5668 5668 5669 5669 5669 5668 5668 5669 5669 5670 5670 5671 5672 5672 5672 5673 5673 5673 5673 5673 5673 5673 5673 5673 5673 5673 5673 5673 5673 5673 5673 5673 5673 5674 5674 5674 5675 5675 5675 5675 5675 5674 5674 5674 5673 5673 5673 5672 5672 5671 5670 5669 5668 5667 5666 5664 5663 5662 5661 5660 5658
5660 5660 5660 5660 5659 5658 5657 5656 5656 5656 5656 5657 5657 5657 5658 5658 5658 5659 5660 5661 5661 5661 5662 5663 5663 5664 5664 5665 5665 5665 5665 5665 5665 5666 5666 5667 5667 5668 5668 5668 5668 5669 5668 5668 5668 5668 5668 5668 5668 5668 5668 5668 5668 5669 5669 5669 5669 5669 5669 5669 5669 5669 5669 5669 5669 5669 5668 5668 5667 5667 5667 5667 5666 5665 5664 5663 5662 5660 5659 5658 5657 5656 5655 5654 5652
5654 5654 5654 5654 5654 5654 5653 5652 5651 5651 5651 5651 5652 5652 5652 5653 5653 5654 5655 5656 5656 5657 5657 5658 5658 5659 5659 5660 5660 5660 5661 5661 5661 5661 5662 5662 5663 5663 5663 5663 5663 5663 5663 5663 5663 5663 5663 5663 5663 5663 5663 5664 5664 5664 5664 5665 5665 5665 5665 5665 5665 5664 5664 5664 5663 5663 5662 5662 5662 5662 5661 5661 5660 5659 5658 5656 5655 5654 5653 5652 5651 5650 5649 5647 5646
5647 5647 5647 5648 5648 5648 5648 5647 5647 5646 5646 5646 5646 5647 5647 5648 5648 5649 5649 5650 5651 5651 5652 5652 5653 5654 5654 5655 5655 5655 5655 5656 5656 5656 5656 5657 5658 5658 5658 5658 5658 5658 5658 5658 5658 5658 5658 5659 5659 5659 5659 5660 5660 5660 5660 5660 5660 5660 5660 5660 5659 5659 5658 5658 5658 5657 5657 5657 5656 5656 5655 5654 5653 5652 5651 5650 5649 5648 5647 5646 5645 5644 5643 5641 5639
5640 5640 5640 5640 5641 5641 5641 5641 5641 5642 5641 5641 5641 5641 5642 5642 5643 5644 5645 5645 5646 5646 5647 5647 5647 5648 5649 5649 5649 5650 5650 5650 5650 5651 5651 5652 5652 5653 5653 5653 5653 5652 5652 5653 5653 5653 5654 5654 5654 5654 5654 5654 5654 5654 5655 5654 5654 5654 5654 5653 5653 5653 5653 5652 5652 5652 5651 5651 5650 5649 5648 5647 5646 5645 5645 5644 5643 5642 5641 5640 5639 5638 5637 5635 5633
5634 5633 5633 5633 5634 5634 5634 5634 5635 5636 5636 5636 5637 5637 5637 5637 5638 5638 5639 5640 5641 5641 5641 5642 5642 5643 5643 5643 5643 5643 5644 5645 5645 5645 5646 5646 5647 5647 5647 5647 5647 5647 5647 5647 5648 5648 5648 5648 5648 5648 5648 5648 5648 5648 5648 5648 5648 5647 5647 5647 5647 5647 5647 5646 5646 5645 5644 5644 5643 5642 5641 5641 5640 5639 5638 5638 5637 5636 5635 5634 5633 5632 5631 5629 5627
5628 5628 5627 5627 5627 5628 5628 5628 5629 5629 5630 5631 5631 5631 5632 5633 5633 5634 5634 5635 5635 5636 5637 5637 5637 5637 5638 5638 5638 5638 5638 5639 5639 5640 5640 5641 5641 5641 5641 5641 5642 5642 5642 5642 5642 5642 5642 5642 5642 5642 5642 5642 5642 5642 5642 5642 5641 5641 5641 5641 5641 5640 5640 5639 5639 5638 5637 5636 5636 5635 5635 5634 5633 5633 5632 5632 5631 5630 5630 5628 5627 5626 5625 5623 5621
5625 5624 5623 5623 5623 5623 5623 5623 5624 5624 5625 5625 5626 5626 5626 5627 5628 5629 5629 5630 5630 5631 5632 5632 5632 5632 5632 5632 5632 5633 5633 5633 5633 5634 5634 5635 5635 5635 5635 5635 5635 5635 5635 5636 5636 5636 5636 5636 5636 5636 5636 5636 5636 5636 5635 5635 5635 5635 5635 5634 5634 5634 5633 5632 5631 5631 5630 5630 5629 5629 5629 5628 5628 5627 5627 5626 5625 5625 5624 5623 5621 5620 5618 5617 5615
5624 5623 5622 5621 5620 5620 5620 5620 5620 5620 5621 5621 5622 5622 5622 5623 5623 5623 5624 5625 5625 5626 5626 5627 5627 5627 5627 5627 5627 5627 5627 5627 5628 5628 5628 5628 5628 5628 5628 5628 5628 5629 5629 5629 5629 5629 5629 5629 5629 5629 5629 5629 5629 5629 5629 5629 5628 5628 5628 5627 5627 5627 5626 5625 5625 5624 5624 5623 5623 5623 5623 5622 5622 5622 5621 5621 5620 5619 5618 5617 5616 5614 5613 5611 5609
5624 5622 5621 5620 5619 5619 5618 5617 5617 5617 5617 5618 5618 5618 5619 5619 5619 5619 5620 5620 5621 5621 5621 5622 5622 5622 5622 5622 5622 5622 5622 5622 5622 5622 5622 5622 5622 5622 5622 5622 5622 5622 5622 5622 5623 5623 5622 5622 5622 5622 5622 5622 5622 5622 5622 5622 5622 5621 5621 5621 5620 5619 5619 5619 5618 5618 5617 5617 5617 5617 5617 5617 5616 5616 5616 5615 5614 5614 5613 5612 5611 5609 5608 5606 5605
5625 5623 5622 5621 5620 5619 5618 5617 5616 5616 5615 5615 5615 5615 5615 5615 5616 5616 5616 5616 5616 5616 5617 5617 5617 5617 5617 5617 5617 5617 5616 5616 5616 5616 5616 5616 5616 5616 5616 5616 5616 5616 5616 5616 5616 5616 5615 5616 5616 5616 5616 5616 5616 5616 5616 5615 5615 5615 5615 5614 5614 5613 5613 5612 5612 5612 5612 5612 5612 5612 5612 5611 5611 5611 5610 5610 5609 5609 5608 5607 5606 5605 5603 5601 5600
5626 5625 5623 5622 5620 5619 5618 5617 5616 5615 5614 5614 5613 5613 5612 5612 5612 5612 5612 5612 5612 5612 5612 5613 5613 5612 5612 5612 5612 5612 5612 5611 5611 5611 5610 5610 5610 5610 5610 5610 5610 5610 5610 5610 5609 5609 5609 5609 5609 5609 5609 5609 5610 5610 5609 5609 5609 5609 5608 5608 5607 5607 5606 5606 5606 5606 5606 5606 5606 5606 5606 5606 5606 5606 5605 5605 5604 5604 5603 5602 5601 5600 5599 5597 5595
5628 5627 5625 5623 5622 5620 5619 5618 5617 5616 5615 5614 5613 5612 5611 5611 5610 5609 5609 5609 5608 5608 5608 5608 5608 5608 5607 5607 5606 5607 5607 5606 5606 5605 5605 5605 5604 5604 5604 5604 5604 5604 5604 5604 5604 5604 5603 5603 5603 5603 5603 5603 5603 5603 5603 5603 5602 5602 5602 5602 5601 5601 5601 5601 5601 5601 5601 5601 5601 5601 5601 5601 5601 5601 5600 5600 5600 5599 5599 5598 5597 5595 5594 5592 5590
5630 5628 5627 5625 5623 5622 5620 5619 5618 5616 5615 5614 5613 5612 5611 5610 5609 5608 5607 5607 5606 5605 5605 5604 5604 5603 5603 5602 5601 5601 5601 5601 5600 5600 5600 5600 5599 5599 5598 5598 5598 5598 5598 5598 5598 5598 5598 5598 5597 5597 5597 5597 5597 5597 5597 5596 5596 5596 5596 5596 5595 5595 5595 5596 5596 5596 5596 5596 5596 5596 5596 5596 5596 5596 5596 5595 5595 5595 5594 5593 5592 5591 5589 5588 5586
5632 5630 5628 5627 5625 5623 5622 5620 5619 5617 5616 5615 5614 5612 5611 5610 5609 5608 5606 5605 5604 5603 5602 5601 5601 5600 5599 5598 5597 5596 5595 5595 5595 5594 5594 5594 5594 5593 5593 5592 5592 5592 5592 5592 5592 5592 5592 5592 5591 5591 5591 5591 5591 5591 5590 5590 5590 5590 5590 5590 5590 5590 5590 5590 5591 5591 5591 5591 5592 5592 5592 5592 5591 5591 5591 5591 5591 5590 5590 5589 5588 5587 5585 5584 5583
5633 5631 5630 5628 5626 5625 5623 5622 5620 5619 5617 5616 5614 5613 5611 5610 5608 5607 5605 5604 5603 5602 5601 5599 5598 5597 5596 5595 5594 5592 5591 5590 5589 5589 5588 5588 5588 5587 5587 5586 5586 5586 5586 5586 5586 5586 5586 5586 5585 5585 5585 5585 5585 5585 5584 5584 5584 5584 5584 5584 5585 5585 5585 5585 5586 5586 5586 5587 5587 5587 5587 5587 5587 5587 5587 5587 5586 5586 5585 5585 5584 5583 5582 5580 5579
5634 5632 5631 5629 5627 5626 5624 5623 5621 5619 5618 5616 5614 5613 5611 5610 5608 5606 5605 5603 5602 5600 5599 5598 5596 5595 5593 5592 5591 5589 5588 5587 5585 5584 5583 5583 5582 5582 5581 5581 5580 5580 5580 5580 5580 5580 5580 5579 5579 5579 5579 5579 5579 5579 5579 5579 5579 5579 5579 5579 5579 5580 5580 5580 5581 5581 5582 5582 5582 5583 5583 5583 5583 5583 5583 5582 5582 5582 5581 5581 5580 5579 5578 5577 5575
5634 5632 5631 5629 5628 5626 5625 5623 5621 5620 5618 5616 5614 5612 5611 5609 5607 5606 5604 5602 5600 5599 5597 5596 5594 5593 5591 5589 5588 5586 5585 5583 5582 5581 5580 5578 5577 5577 5576 5575 5575 5575 5574 5574 5574 5574 5574 5574 5574 5573 5573 5573 5573 5573 5573 5573 5574 5574 5574 5574 5574 5575 5575 5576 5576 5577 5577 5578 5578 5578 5579 5579 5579 5579 5578 5578 5578 5578 5578 5577 5576 5576 5574 5573 5571
5634 5632 5631 5629 5628 5626 5624 5623 5621 5619 5618 5616 5614 5612 5610 5609 5607 5605 5603 5601 5599 5597 5595 5594 5592 5590 5588 5587 5585 5583 5581 5580 5578 5577 5575 5574 5573 5572 5571 5571 5570 5569 5569 5569 5569 5569 5568 5568 5568 5568 5568 5568 5568 5568 5568 5569 5569 5569 5569 5569 5570 5570 5571 5571 5572 5572 5573 5573 5574 5574 5574 5574 5574 5574 5574 5574 5574 5574 5574 5573 5572 5571 5570 5569 5567
5633 5632 5630 5628 5627 5625 5624 5622 5620 5619 5617 5615 5613 5612 5610 5608 5606 5604 5602 5600 5598 5596 5594 5592 5590 5588 5586 5584 5582 5580 5579 5577 5575 5573 5572 5570 5569 5568 5567 5566 5565 5564 5564 5563 5563 5563 5563 5563 5563 5563 5563 5563 5563 5564 5564 5564 5564 5564 5565 5565 5565 5566 5566 5567 5568 5568 5569 5569 5569 5570 5570 5570 5570 5570 5570 5570 5570 5570 5570 5569 5568 5567 5566 5565 5563
5632 5631 5629 5628 5626 5624 5623 5621 5619 5618 5616 5614 5612 5610 5608 5607 5605 5603 5601 5599 5597 5595 5593 5591 5588 5586 5584 5582 5580 5578 5575 5573 5572 5570 5568 5566 5565 5563 5562 5561 5560 5560 5559 5559 5558 5558 5558 5558 5558 5558 5558 5558 5559 5559 5559 5559 5560 5560 5560 5561 5561 5562 5562 5563 5563 5564 5564 5565 5565 5566 5566 5566 5566 5566 5567 5567 5566 5566 5566 5565 5564 5563 5562 5561 5559
5631 5630 5628 5626 5625 5623 5621 5620 5618 5616 5614 5613 5611 5609 5607 5605 5603 5601 5599 5597 5596 5594 5592 5590 5587 5585 5582 5580 5578 5576 5573 5571 5569 5566 5564 5562 5561 5559 5558 5557 5556 5555 5555 5554 5554 5553 5553 5553 5553 5553 5553 5554 5554 5554 5554 5555 5555 5556 5556 5556 5557 5557 5558 5558 5559 5560 5560 5561 5561 5562 5562 5562 5562 5563 5563 5563 5562 5562 5561 5561 5560 5559 5558 5557 5555